Location: Devore Heights
(34.2372°N, 117.4156°W)
Time: 02:35:38
(UTC+00:00)

Altair - Pass Details

Date: 14 September 2024
Orbit: 1501 x 1682 km, 47.2° (Epoch: 09 October)

Event Time Altitude Azimuth Distance (km) Brightness Sun altitude
Exits shadow 10:04:58 76° 70° (ENE) 1,711 7.6 -40.2°
Drops below altitude 10° 10:14:10 10° 55° (NE) 3,947 10.3 -38.8°
Sets 10:17:21 0° 55° (NE) 4,938 11.1 -38.3°
